IK5UIK-3 Weather Reports


time (UTC)temp
F
wind
direction
speed
knots
gust
knots
rain 1hr
in
rain 24hr
in
rain mn
in
humidity
%
barometer
mb
20260906100003 89 180 0.0 1.7 0.00 0.00 0.00 57 1013.2
20260906095403 88 225 0.0 0.9 0.00 0.00 0.00 58 1013.1
20260906094907 88 270 0.0 3.5 0.00 0.00 0.00 59 1013.2
20260906094803 88 180 0.0 3.5 0.00 0.00 0.00 59 1013.2
20260906094203 87 135 1.7 1.7 0.00 0.00 0.00 59 1013.2
20260906093603 86 157 0.0 1.7 0.00 0.00 0.00 61 1013.2
20260906093405 86 247 0.9 1.7 0.00 0.00 0.00 61 1013.2
20260906093003 86 270 0.0 1.7 0.00 0.00 0.00 62 1013.2
20260906092905 85 225 1.7 1.7 0.00 0.00 0.00 62 1013.1
20260906092403 85 157 0.9 2.6 0.00 0.00 0.00 63 1013.2
20260906091803 85 270 0.9 0.9 0.00 0.00 0.00 64 1013.2
20260906091405 84 157 0.9 0.9 0.00 0.00 0.00 64 1013.3
20260906091203 84 180 0.0 1.7 0.00 0.00 0.00 66 1013.3
20260906090603 84 270 1.7 1.7 0.00 0.00 0.00 66 1013.3
20260906090439 84 180 0.0 0.9 0.00 0.00 0.00 66 1013.4
20260906090405 84 180 0.0 0.9 0.00 0.00 0.00 66 1013.4
20260906090003 83 292 0.9 1.7 0.00 0.00 0.00 67 1013.4
20260906084910 82 315 0.0 1.7 0.00 0.00 0.00 68 1013.4
20260906084405 82 270 0.0 0.0 0.00 0.00 0.00 70 1013.4
20260906083924 82 202 0.0 0.0 0.00 0.00 0.00 70 1013.3
20260906083603 82 157 0.0 1.7 0.00 0.00 0.00 70 1013.4
20260906083003 81 292 1.7 2.6 0.00 0.00 0.00 71 1013.5
20260906082906 81 292 0.0 2.6 0.00 0.00 0.00 71 1013.4
20260906082403 81 292 2.6 2.6 0.00 0.00 0.00 72 1013.5
20260906081803 80 292 0.0 0.9 0.00 0.00 0.00 73 1013.5
20260906081203 80 247 0.0 1.7 0.00 0.00 0.00 73 1013.5
20260906080908 79 292 0.0 1.7 0.00 0.00 0.00 73 1013.5
20260906080603 79 0 1.7 1.7 0.00 0.00 0.00 74 1013.4
20260906080445 79 292 1.7 1.7 0.00 0.00 0.00 74 1013.5
20260906080411 79 292 1.7 1.7 0.00 0.00 0.00 74 1013.5
20260906080003 79 337 0.9 1.7 0.00 0.00 0.00 75 1013.4
20260906075906 79 180 0.0 1.7 0.00 0.00 0.00 75 1013.4
20260906075403 78 247 1.7 1.7 0.00 0.00 0.00 75 1013.5
20260906074906 78 292 0.9 0.9 0.00 0.00 0.00 76 1013.5
20260906074803 78 292 0.9 0.9 0.00 0.00 0.00 76 1013.5
20260906074406 77 315 0.0 0.9 0.00 0.00 0.00 77 1013.4
20260906074203 77 225 0.9 0.9 0.00 0.00 0.00 77 1013.4
20260906073906 77 225 0.0 0.0 0.00 0.00 0.00 77 1013.4
20260906073603 77 315 0.0 0.0 0.00 0.00 0.00 77 1013.3
20260906073003 76 157 0.0 2.6 0.00 0.00 0.00 78 1013.3
20260906072403 76 225 0.9 0.9 0.00 0.00 0.00 79 1013.3
20260906071803 76 157 0.0 0.0 0.00 0.00 0.00 79 1013.2
20260906071203 75 180 0.9 0.9 0.00 0.00 0.00 81 1013.2
20260906070906 75 0 0.0 0.0 0.00 0.00 0.00 81 1013.1
20260906070603 74 0 0.0 0.0 0.00 0.00 0.00 82 1013.1
20260906070407 74 0 0.0 0.0 0.00 0.00 0.00 82 1013.1
20260906070003 73 0 0.0 0.0 0.00 0.00 0.00 82 1013.0
20260906065403 72 0 0.0 0.0 0.00 0.00 0.00 83 1013.0
20260906064906 71 135 0.0 0.9 0.00 0.00 0.00 83 1013.0
20260906064803 71 157 0.0 0.9 0.00 0.00 0.00 83 1013.0
20260906064406 70 247 0.9 0.9 0.00 0.00 0.00 84 1013.0
20260906064203 70 180 0.9 0.9 0.00 0.00 0.00 84 1013.0
20260906063603 69 67 0.9 0.9 0.00 0.00 0.00 85 1012.9
20260906063408 69 157 0.9 1.7 0.00 0.00 0.00 85 1013.0
20260906063003 69 157 0.9 2.6 0.00 0.00 0.00 85 1012.9
20260906062907 68 157 1.7 2.6 0.00 0.00 0.00 85 1012.9
20260906062403 68 180 1.7 2.6 0.00 0.00 0.00 86 1013.0
20260906061907 68 135 2.6 2.6 0.00 0.00 0.00 86 1012.9
20260906061803 67 157 0.9 0.9 0.00 0.00 0.00 86 1012.9
20260906061406 67 157 0.9 2.6 0.00 0.00 0.00 86 1012.9
20260906061203 67 157 2.6 2.6 0.00 0.00 0.00 86 1012.9
20260906060603 66 135 0.9 2.6 0.00 0.00 0.00 86 1012.9
20260906060406 66 135 2.6 2.6 0.00 0.00 0.00 86 1012.9
20260906060003 66 157 2.6 2.6 0.00 0.00 0.00 86 1012.8
20260906055403 66 157 1.7 3.5 0.00 0.00 0.00 86 1012.7
20260906054906 66 135 0.9 1.7 0.00 0.00 0.00 86 1012.7
20260906054803 66 90 0.9 1.7 0.00 0.00 0.00 86 1012.7
20260906054411 66 112 0.9 1.7 0.00 0.00 0.00 86 1012.7
20260906054203 66 112 0.9 1.7 0.00 0.00 0.00 86 1012.7
20260906053906 66 112 1.7 1.7 0.00 0.00 0.00 86 1012.7
20260906053603 66 135 0.0 1.7 0.00 0.00 0.00 86 1012.6
20260906053003 66 135 1.7 1.7 0.00 0.00 0.00 86 1012.7
20260906052906 66 112 0.9 0.9 0.00 0.00 0.00 86 1012.7
20260906052403 66 180 0.0 2.6 0.00 0.00 0.00 86 1012.7
20260906051803 66 112 2.6 2.6 0.00 0.00 0.00 86 1012.7
20260906051406 66 135 1.7 2.6 0.00 0.00 0.00 86 1012.6
20260906051203 66 202 0.0 2.6 0.00 0.00 0.00 86 1012.6
20260906050906 66 157 2.6 2.6 0.00 0.00 0.00 86 1012.6
20260906050603 66 157 1.7 1.7 0.00 0.00 0.00 86 1012.6
20260906050408 66 135 0.9 3.5 0.00 0.00 0.00 86 1012.5
20260906050003 66 135 0.0 3.5 0.00 0.00 0.00 86 1012.6
20260906045907 66 135 3.5 3.5 0.00 0.00 0.00 86 1012.6
20260906045403 66 135 2.6 2.6 0.00 0.00 0.00 86 1012.6
20260906044907 67 157 0.0 0.9 0.00 0.00 0.00 86 1012.5
20260906044803 67 157 0.0 0.9 0.00 0.00 0.00 86 1012.6
20260906044406 66 157 0.9 0.9 0.00 0.00 0.00 86 1012.5
20260906044203 67 180 0.0 0.0 0.00 0.00 0.00 86 1012.5
20260906043906 66 157 0.0 0.0 0.00 0.00 0.00 86 1012.5
20260906043603 67 157 0.0 0.0 0.00 0.00 0.00 85 1012.5
20260906043410 67 112 0.0 0.0 0.00 0.00 0.00 85 1012.6
20260906043003 66 135 0.0 0.0 0.00 0.00 0.00 86 1012.6
20260906042910 66 135 0.0 0.0 0.00 0.00 0.00 86 1012.5
20260906042403 66 157 0.0 0.0 0.00 0.00 0.00 86 1012.5
20260906041803 66 157 0.0 0.9 0.00 0.00 0.00 86 1012.5
20260906041408 66 157 0.0 0.9 0.00 0.00 0.00 86 1012.5
20260906041203 66 157 0.0 0.9 0.00 0.00 0.00 86 1012.6
20260906040906 66 157 0.9 0.9 0.00 0.00 0.00 85 1012.5
20260906040603 66 157 0.0 0.0 0.00 0.00 0.00 85 1012.4
20260906040441 67 112 0.0 0.0 0.00 0.00 0.00 85 1012.3
20260906040406 67 112 0.0 0.0 0.00 0.00 0.00 85 1012.3
20260906040003 67 112 0.0 0.0 0.00 0.00 0.00 85 1012.3
20260906035906 67 112 0.0 0.0 0.00 0.00 0.00 85 1012.3
20260906035403 67 135 0.0 0.0 0.00 0.00 0.00 85 1012.5
20260906034907 67 135 0.0 0.0 0.00 0.00 0.00 85 1012.4
20260906034803 67 157 0.0 0.0 0.00 0.00 0.00 85 1012.3
20260906034406 67 157 0.0 0.0 0.00 0.00 0.00 85 1012.3
20260906034203 67 157 0.0 0.0 0.00 0.00 0.00 85 1012.3
20260906033908 67 157 0.0 0.0 0.00 0.00 0.00 85 1012.3
20260906033603 67 180 0.0 0.0 0.00 0.00 0.00 85 1012.3
20260906033408 67 135 0.0 0.0 0.00 0.00 0.00 85 1012.2
20260906033003 67 157 0.0 0.0 0.00 0.00 0.00 85 1012.2
20260906032403 67 180 0.0 0.0 0.00 0.00 0.00 85 1012.1
20260906031803 67 157 0.0 0.0 0.00 0.00 0.00 85 1012.1
20260906031408 67 135 0.0 0.0 0.00 0.00 0.00 85 1012.1
20260906031203 67 180 0.0 0.0 0.00 0.00 0.00 85 1012.1
20260906030906 67 112 0.0 0.0 0.00 0.00 0.00 85 1012.2
20260906030603 67 157 0.0 0.0 0.00 0.00 0.00 85 1012.0
20260906030408 67 157 0.0 0.0 0.00 0.00 0.00 85 1012.1
20260906030004 68 180 0.0 0.0 0.00 0.00 0.00 85 1012.1
20260906025907 68 135 0.0 0.0 0.00 0.00 0.00 85 1012.1
20260906025403 68 180 0.0 0.0 0.00 0.00 0.00 85 1012.0
20260906024907 68 157 0.0 0.0 0.00 0.00 0.00 84 1012.0
20260906024803 68 157 0.0 0.0 0.00 0.00 0.00 84 1012.0
20260906024410 68 112 0.0 0.0 0.00 0.00 0.00 84 1012.0
20260906024203 68 135 0.0 0.0 0.00 0.00 0.00 84 1012.1
20260906023603 68 135 0.0 0.0 0.00 0.00 0.00 84 1012.0
20260906023004 68 135 0.0 0.0 0.00 0.00 0.00 84 1012.1
20260906022907 68 157 0.0 0.0 0.00 0.00 0.00 84 1012.1
20260906022403 68 135 0.0 2.6 0.00 0.00 0.00 84 1012.1
20260906021804 68 112 0.0 0.0 0.00 0.00 0.00 84 1011.8
20260906021204 68 157 0.0 0.0 0.00 0.00 0.00 84 1012.1
20260906020907 68 135 0.0 0.0 0.00 0.00 0.00 83 1012.0
20260906020604 68 135 0.0 0.0 0.00 0.00 0.00 83 1012.0
20260906020004 68 157 0.0 0.0 0.00 0.00 0.00 83 1012.0
20260906015404 68 135 0.0 0.0 0.00 0.00 0.00 84 1012.0
20260906014804 68 157 0.0 0.0 0.00 0.00 0.00 84 1011.9
20260906014406 68 112 0.0 0.0 0.00 0.00 0.00 84 1012.0
20260906014204 68 112 0.0 0.0 0.00 0.00 0.00 84 1012.0
20260906013907 68 135 0.0 0.0 0.00 0.00 0.00 84 1012.1
20260906013604 68 135 0.0 0.0 0.00 0.00 0.00 83 1012.0
20260906013407 68 90 0.0 0.0 0.00 0.00 0.00 83 1012.0
20260906013004 68 157 0.0 0.0 0.00 0.00 0.00 83 1012.1
20260906012404 68 135 0.0 0.0 0.00 0.00 0.00 83 1012.0
20260906011906 68 112 0.0 0.0 0.00 0.00 0.00 83 1012.0
20260906011804 68 112 0.0 0.0 0.00 0.00 0.00 83 1011.9
20260906011408 69 135 0.0 0.0 0.00 0.00 0.00 83 1012.1
20260906011204 69 90 0.0 0.0 0.00 0.00 0.00 83 1012.2
20260906010909 69 135 0.0 0.0 0.00 0.00 0.00 83 1012.0
20260906010604 69 135 0.0 0.0 0.00 0.00 0.00 82 1012.3
20260906010406 69 135 0.0 0.0 0.00 0.00 0.00 82 1012.0
20260906010004 69 157 0.0 0.0 0.00 0.00 0.00 82 1012.1
20260906005908 69 157 0.0 0.0 0.00 0.00 0.00 82 1012.2
20260906005404 69 135 0.0 0.0 0.00 0.00 0.00 82 1012.0
20260906004907 69 180 0.0 0.0 0.00 0.00 0.00 82 1012.2
20260906004804 69 157 0.0 0.0 0.00 0.00 0.00 82 1012.1
20260906004406 69 157 0.0 0.0 0.00 0.00 0.00 82 1012.2
20260906004204 69 157 0.0 0.0 0.00 0.00 0.00 82 1012.2
20260906003906 69 135 0.0 0.0 0.00 0.00 0.00 82 1012.1
20260906003604 69 202 0.0 0.0 0.00 0.00 0.00 82 1012.1
20260906003408 69 202 0.0 0.0 0.00 0.00 0.00 82 1012.1
20260906003004 69 90 0.0 0.0 0.00 0.00 0.00 82 1012.0
20260906002404 70 157 0.0 0.0 0.00 0.00 0.00 82 1012.0
20260906001909 70 157 0.0 0.0 0.00 0.00 0.00 82 1012.1
20260906001804 70 112 0.0 0.0 0.00 0.00 0.00 82 1012.1
20260906001407 70 157 0.0 0.0 0.00 0.00 0.00 82 1012.0
20260906001204 70 135 0.0 0.0 0.00 0.00 0.00 81 1012.0
20260906000604 70 157 0.0 0.0 0.00 0.00 0.00 81 1012.0
20260906000410 70 157 0.0 0.0 0.00 0.00 0.00 81 1012.0
20260906000004 70 135 0.0 0.0 0.00 0.00 0.00 81 1012.0
20260905235907 70 135 0.0 0.0 0.00 0.00 0.00 81 1012.0
20260905235404 70 157 0.0 0.0 0.00 0.00 0.00 81 1012.0
20260905234804 71 157 0.0 0.0 0.00 0.00 0.00 81 1012.0
20260905234408 71 157 0.0 0.0 0.00 0.00 0.00 81 1012.1
20260905234204 71 135 0.0 0.0 0.00 0.00 0.00 81 1012.0
20260905233907 71 157 0.0 0.0 0.00 0.00 0.00 81 1012.0
20260905233604 71 135 0.0 0.0 0.00 0.00 0.00 81 1012.1
20260905233408 71 135 0.0 0.0 0.00 0.00 0.00 81 1012.1
20260905233004 71 157 0.0 0.0 0.00 0.00 0.00 81 1012.1
20260905232907 71 112 0.0 0.0 0.00 0.00 0.00 81 1012.0
20260905232404 71 135 0.0 0.0 0.00 0.00 0.00 81 1012.2
20260905231907 71 157 0.0 0.0 0.00 0.00 0.00 81 1012.1
20260905231804 71 157 0.0 0.0 0.00 0.00 0.00 80 1012.2
20260905231407 71 202 0.0 0.0 0.00 0.00 0.00 80 1012.1
20260905231204 71 157 0.0 0.0 0.00 0.00 0.00 80 1012.2
20260905230907 71 157 0.0 0.0 0.00 0.00 0.00 80 1012.3
20260905230604 71 157 0.0 0.0 0.00 0.00 0.00 80 1012.1
20260905230408 71 157 0.0 0.0 0.00 0.00 0.00 80 1012.1
20260905230004 71 90 0.0 0.0 0.00 0.00 0.00 80 1012.1
20260905225404 71 135 0.0 0.0 0.00 0.00 0.00 79 1012.2
20260905224907 72 112 0.0 0.0 0.00 0.00 0.00 79 1012.2
20260905224804 72 112 0.0 0.0 0.00 0.00 0.00 79 1012.1
20260905224411 72 157 0.0 0.0 0.00 0.00 0.00 79 1012.2
20260905224204 72 157 0.0 0.0 0.00 0.00 0.00 79 1012.1
20260905223604 72 157 0.0 0.0 0.00 0.00 0.00 79 1012.1
20260905223410 72 157 0.0 0.0 0.00 0.00 0.00 79 1012.1
20260905223004 72 157 0.0 0.0 0.00 0.00 0.00 79 1012.0
20260905222908 72 157 0.0 0.0 0.00 0.00 0.00 79 1011.9
20260905222404 72 157 0.0 0.0 0.00 0.00 0.00 79 1012.2
20260905221908 72 157 0.0 0.0 0.00 0.00 0.00 78 1012.0
20260905221804 72 157 0.0 0.0 0.00 0.00 0.00 78 1012.0
20260905221204 73 45 0.0 0.0 0.00 0.00 0.00 78 1012.0
20260905220907 73 135 0.0 0.0 0.00 0.00 0.00 78 1011.9
20260905220604 73 112 0.0 0.0 0.00 0.00 0.00 78 1011.9
20260905220407 73 135 0.0 0.0 0.00 0.00 0.00 78 1011.8
20260905220005 73 157 0.0 0.0 0.00 0.00 0.00 77 1011.8
20260905215404 73 157 0.0 0.0 0.00 0.00 0.00 77 1011.7
20260905214804 73 112 0.0 0.0 0.00 0.00 0.00 77 1011.8
20260905214407 73 135 0.0 0.0 0.00 0.00 0.00 77 1011.8
20260905214204 73 135 0.0 0.0 0.00 0.00 0.00 77 1011.7
20260905213908 73 90 0.0 0.0 0.00 0.00 0.00 77 1011.8
20260905213604 74 157 0.0 3.5 0.00 0.00 0.00 76 1011.8
20260905213004 74 157 3.5 3.5 0.00 0.00 0.00 76 1011.7
20260905212404 74 157 0.0 0.0 0.00 0.00 0.00 75 1011.6
20260905211804 75 112 0.0 0.0 0.00 0.00 0.00 75 1011.5
20260905211408 75 157 0.0 0.0 0.00 0.00 0.00 75 1011.5
20260905211204 75 157 0.0 0.0 0.00 0.00 0.00 75 1011.6
20260905210604 75 135 0.0 0.0 0.00 0.00 0.00 74 1011.5
20260905210004 75 157 0.0 0.0 0.00 0.00 0.00 74 1011.7
20260905205404 75 157 0.0 0.0 0.00 0.00 0.00 73 1011.6
20260905204908 76 180 0.0 0.0 0.00 0.00 0.00 73 1011.5
20260905204804 76 180 0.0 0.0 0.00 0.00 0.00 73 1011.6
20260905204204 76 157 0.0 0.0 0.00 0.00 0.00 73 1011.6
20260905203908 76 45 0.0 0.0 0.00 0.00 0.00 73 1011.5
20260905203604 76 45 0.0 0.0 0.00 0.00 0.00 72 1011.5
20260905203409 76 45 0.0 0.0 0.00 0.00 0.00 72 1011.5
20260905203004 77 22 0.0 0.0 0.00 0.00 0.00 72 1011.5
20260905202907 77 22 0.0 0.0 0.00 0.00 0.00 71 1011.5
20260905202404 77 22 0.0 0.0 0.00 0.00 0.00 71 1011.5
20260905201804 77 22 0.0 0.0 0.00 0.00 0.00 71 1011.4
20260905201204 77 22 0.0 0.0 0.00 0.00 0.00 70 1011.3
20260905200604 78 22 0.0 0.0 0.00 0.00 0.00 70 1011.2
20260905200407 78 22 0.0 0.0 0.00 0.00 0.00 70 1011.3
20260905200004 78 22 0.0 0.0 0.00 0.00 0.00 70 1011.4
20260905195908 78 22 0.0 0.0 0.00 0.00 0.00 70 1011.4
20260905195404 78 22 0.0 0.0 0.00 0.00 0.00 69 1011.3
20260905194907 78 22 0.0 0.0 0.00 0.00 0.00 69 1011.2
20260905194804 78 22 0.0 0.0 0.00 0.00 0.00 69 1011.2
20260905194407 79 0 0.0 0.0 0.00 0.00 0.00 68 1011.3
20260905194204 79 0 0.0 0.0 0.00 0.00 0.00 68 1011.3
20260905193604 79 225 0.0 0.0 0.00 0.00 0.00 67 1011.1
20260905193004 79 270 0.0 0.0 0.00 0.00 0.00 66 1011.0
20260905192404 80 247 0.0 0.0 0.00 0.00 0.00 66 1011.0
20260905191804 80 225 0.0 0.0 0.00 0.00 0.00 66 1010.8
20260905191407 80 180 0.0 0.0 0.00 0.00 0.00 65 1010.7
20260905191204 80 225 0.0 0.0 0.00 0.00 0.00 65 1010.7
20260905190604 80 247 0.0 0.0 0.00 0.00 0.00 65 1010.7
20260905190004 81 247 0.0 0.0 0.00 0.00 0.00 65 1010.7
20260905185907 81 247 0.0 0.0 0.00 0.00 0.00 65 1010.7
20260905185404 81 225 0.0 0.0 0.00 0.00 0.00 65 1010.8
20260905184804 81 180 0.0 0.0 0.00 0.00 0.00 65 1010.7
20260905184407 81 202 0.0 0.0 0.00 0.00 0.00 65 1010.7
20260905184204 81 225 0.0 0.0 0.00 0.00 0.00 65 1010.7
20260905183909 81 247 0.0 0.9 0.00 0.00 0.00 65 1010.6
20260905183604 82 247 0.9 0.9 0.00 0.00 0.00 64 1010.6
20260905183004 82 247 0.0 0.0 0.00 0.00 0.00 64 1010.6
20260905182907 82 202 0.0 0.0 0.00 0.00 0.00 64 1010.6
20260905182404 82 202 0.0 0.0 0.00 0.00 0.00 63 1010.5
20260905181804 82 270 0.0 0.0 0.00 0.00 0.00 63 1010.4
20260905181408 82 225 0.0 0.0 0.00 0.00 0.00 62 1010.4
20260905181204 83 225 0.0 0.0 0.00 0.00 0.00 62 1010.3
20260905180604 83 270 0.0 0.0 0.00 0.00 0.00 62 1010.3
20260905180004 84 270 0.0 0.0 0.00 0.00 0.00 61 1010.3
20260905175907 84 202 0.0 0.0 0.00 0.00 0.00 60 1010.2
20260905175405 84 315 0.0 0.0 0.00 0.00 0.00 60 1010.1
20260905174908 84 270 0.0 0.0 0.00 0.00 0.00 59 1010.1
20260905174805 84 270 0.0 0.0 0.00 0.00 0.00 59 1010.0
20260905174205 84 315 0.0 0.0 0.00 0.00 0.00 58 1009.9
20260905173908 85 292 0.0 1.7 0.00 0.00 0.00 58 1009.9
20260905173605 85 292 0.0 1.7 0.00 0.00 0.00 58 1009.9
20260905173409 85 292 1.7 2.6 0.00 0.00 0.00 57 1009.9
20260905173005 85 315 2.6 5.2 0.00 0.00 0.00 57 1009.8
20260905172405 86 270 5.2 5.2 0.00 0.00 0.00 56 1009.7
20260905171805 86 337 0.9 2.6 0.00 0.00 0.00 55 1009.7
20260905171409 86 292 2.6 2.6 0.00 0.00 0.00 55 1009.8
20260905171205 87 270 2.6 2.6 0.00 0.00 0.00 55 1009.8
20260905170909 87 22 1.7 2.6 0.00 0.00 0.00 55 1009.8
20260905170605 87 270 0.9 2.6 0.00 0.00 0.00 54 1009.8
20260905170410 87 22 2.6 2.6 0.00 0.00 0.00 54 1009.8
20260905170005 87 337 1.7 2.6 0.00 0.00 0.00 53 1009.7
20260905165911 87 337 1.7 2.6 0.00 0.00 0.00 53 1009.6
20260905165405 88 315 0.0 2.6 0.00 0.00 0.00 52 1009.7
20260905164805 88 292 2.6 3.5 0.00 0.00 0.00 51 1009.6
20260905164410 88 247 0.0 4.3 0.00 0.00 0.00 51 1009.5
20260905164205 89 270 3.5 4.3 0.00 0.00 0.00 51 1009.7
20260905163909 89 270 4.3 4.3 0.00 0.00 0.00 51 1009.6
20260905163605 89 292 3.5 4.3 0.00 0.00 0.00 52 1009.5
20260905163005 89 270 4.3 7.0 0.00 0.00 0.00 53 1009.4
20260905162908 89 292 7.0 7.0 0.00 0.00 0.00 53 1009.5
20260905162405 89 315 3.5 5.2 0.00 0.00 0.00 53 1009.4
20260905161907 89 247 2.6 2.6 0.00 0.00 0.00 51 1009.4
20260905161805 89 247 2.6 3.5 0.00 0.00 0.00 51 1009.4
20260905161408 90 157 2.6 3.5 0.00 0.00 0.00 51 1009.5
20260905161205 90 292 3.5 5.2 0.00 0.00 0.00 51 1009.4
20260905160605 90 337 0.9 3.5 0.00 0.00 0.00 51 1009.3
20260905160005 90 292 1.7 7.0 0.00 0.00 0.00 51 1009.2
20260905155909 90 292 1.7 7.0 0.00 0.00 0.00 51 1009.3
20260905155405 91 157 6.1 6.1 0.00 0.00 0.00 51 1009.3
20260905154805 91 202 0.9 2.6 0.00 0.00 0.00 49 1009.3
20260905154205 91 337 0.9 7.8 0.00 0.00 0.00 48 1009.2
20260905153909 91 270 5.2 7.8 0.00 0.00 0.00 48 1009.2
20260905153605 91 292 3.5 3.5 0.00 0.00 0.00 48 1009.2
20260905153007 92 292 0.0 5.2 0.00 0.00 0.00 46 1009.1
20260905152908 92 292 0.0 5.2 0.00 0.00 0.00 46 1009.2
20260905152405 92 247 1.7 7.0 0.00 0.00 0.00 46 1009.2
20260905151805 92 292 3.5 3.5 0.00 0.00 0.00 46 1009.2
20260905151408 92 292 1.7 3.5 0.00 0.00 0.00 46 1009.3
20260905151205 92 22 2.6 3.5 0.00 0.00 0.00 46 1009.4
20260905150908 92 315 3.5 3.5 0.00 0.00 0.00 46 1009.3
20260905150605 92 292 2.6 3.5 0.00 0.00 0.00 46 1009.4
20260905150408 92 292 3.5 3.5 0.00 0.00 0.00 46 1009.4
20260905150005 92 270 1.7 5.2 0.00 0.00 0.00 46 1009.3
20260905145405 92 225 2.6 6.1 0.00 0.00 0.00 46 1009.3
20260905144805 92 315 1.7 4.3 0.00 0.00 0.00 45 1009.3
20260905144205 93 225 4.3 4.3 0.00 0.00 0.00 46 1009.3
20260905143948 93 45 1.7 3.5 0.00 0.00 0.00 46 1009.3
20260905143908 93 45 1.7 3.5 0.00 0.00 0.00 46 1009.3
20260905143605 93 180 2.6 2.6 0.00 0.00 0.00 46 1009.3
20260905143005 93 0 0.0 2.6 0.00 0.00 0.00 47 1009.4
20260905142405 93 180 2.6 5.2 0.00 0.00 0.00 47 1009.5
20260905141805 93 292 1.7 3.5 0.00 0.00 0.00 46 1009.5
20260905141409 92 292 1.7 7.0 0.00 0.00 0.00 46 1009.5
20260905141205 92 315 3.5 7.0 0.00 0.00 0.00 46 1009.6
20260905140909 92 292 7.0 7.0 0.00 0.00 0.00 46 1009.8
20260905140605 92 292 5.2 5.2 0.00 0.00 0.00 46 1009.7
20260905140005 92 270 7.0 7.0 0.00 0.00 0.00 46 1009.8
20260905135908 92 270 7.0 7.0 0.00 0.00 0.00 46 1009.8
20260905135405 92 292 2.6 2.6 0.00 0.00 0.00 46 1009.9
20260905134805 92 292 2.6 5.2 0.00 0.00 0.00 45 1010.1
20260905134205 92 337 3.5 3.5 0.00 0.00 0.00 46 1009.8
20260905133908 92 270 3.5 3.5 0.00 0.00 0.00 46 1009.9
20260905133605 92 292 3.5 3.5 0.00 0.00 0.00 46 1010.0
20260905133409 92 0 0.9 1.7 0.00 0.00 0.00 46 1009.9
20260905133005 92 270 1.7 3.5 0.00 0.00 0.00 46 1010.0
20260905132911 92 270 1.7 3.5 0.00 0.00 0.00 46 1010.0
20260905132405 92 315 3.5 7.0 0.00 0.00 0.00 46 1009.9
20260905131908 92 315 1.7 7.0 0.00 0.00 0.00 46 1010.1
20260905131805 92 315 1.7 7.0 0.00 0.00 0.00 46 1010.1
20260905131205 92 270 4.3 7.0 0.00 0.00 0.00 47 1010.2
20260905130909 92 270 4.3 7.8 0.00 0.00 0.00 47 1010.4
20260905130605 92 270 7.8 7.8 0.00 0.00 0.00 47 1010.3
20260905130408 91 247 2.6 4.3 0.00 0.00 0.00 47 1010.3
20260905130005 91 270 4.3 4.3 0.00 0.00 0.00 48 1010.3
20260905125910 91 270 4.3 4.3 0.00 0.00 0.00 48 1010.3
20260905125405 91 292 0.9 4.3 0.00 0.00 0.00 48 1010.4
20260905124909 91 337 3.5 3.5 0.00 0.00 0.00 51 1010.5
20260905124805 91 337 3.5 3.5 0.00 0.00 0.00 51 1010.4
20260905124408 91 292 0.9 7.0 0.00 0.00 0.00 51 1010.4
20260905124205 91 337 0.9 7.0 0.00 0.00 0.00 51 1010.6
20260905123910 91 292 7.0 7.0 0.00 0.00 0.00 52 1010.5
20260905123605 91 292 4.3 7.0 0.00 0.00 0.00 53 1010.6
20260905123413 91 315 7.0 7.0 0.00 0.00 0.00 53 1010.5
20260905123006 90 225 2.6 3.5 0.00 0.00 0.00 53 1010.7
20260905122405 90 270 3.5 3.5 0.00 0.00 0.00 53 1010.6
20260905121805 90 315 3.5 6.1 0.00 0.00 0.00 55 1010.5
20260905121408 90 315 3.5 6.1 0.00 0.00 0.00 55 1010.6
20260905121205 90 292 6.1 6.1 0.00 0.00 0.00 55 1010.7
20260905120909 90 292 2.6 2.6 0.00 0.00 0.00 55 1010.7
20260905120605 90 67 2.6 2.6 0.00 0.00 0.00 56 1010.7
20260905120005 89 292 0.0 3.5 0.00 0.00 0.00 57 1010.7
20260905115908 89 292 0.0 3.5 0.00 0.00 0.00 57 1010.8
20260905115405 89 247 3.5 3.5 0.00 0.00 0.00 57 1010.9
20260905114909 89 292 3.5 3.5 0.00 0.00 0.00 57 1010.8
20260905114805 89 292 3.5 3.5 0.00 0.00 0.00 57 1010.8
20260905114205 89 270 3.5 3.5 0.00 0.00 0.00 57 1010.9
20260905113605 89 337 2.6 7.0 0.00 0.00 0.00 57 1011.1
20260905113408 89 247 7.0 7.0 0.00 0.00 0.00 57 1011.2
20260905113005 89 225 0.9 5.2 0.00 0.00 0.00 57 1011.3
20260905112908 89 225 0.9 5.2 0.00 0.00 0.00 57 1011.3
20260905112411 89 315 5.2 5.2 0.00 0.00 0.00 57 1011.0
20260905112405 89 315 4.3 4.3 0.00 0.00 0.00 57 1011.0
20260905111805 89 292 2.6 2.6 0.00 0.00 0.00 57 1011.1
20260905111205 88 202 0.0 3.5 0.00 0.00 0.00 57 1011.2
20260905110605 87 202 0.0 0.0 0.00 0.00 0.00 58 1011.2
20260905110411 87 202 0.0 1.7 0.00 0.00 0.00 58 1011.3
20260905110006 87 0 1.7 3.5 0.00 0.00 0.00 58 1011.3
20260905105909 87 0 1.7 3.5 0.00 0.00 0.00 58 1011.2
20260905105415 87 157 3.5 4.3 0.00 0.00 0.00 59 1011.3
20260905105406 87 225 3.5 4.3 0.00 0.00 0.00 59 1011.3
20260905104908 87 202 4.3 5.2 0.00 0.00 0.00 59 1011.2
20260905104805 87 202 4.3 5.2 0.00 0.00 0.00 59 1011.2
20260905104417 86 202 5.2 5.2 0.00 0.00 0.00 59 1011.3
20260905104205 86 247 0.9 3.5 0.00 0.00 0.00 59 1011.3
20260905103605 86 0 0.0 0.0 0.00 0.00 0.00 60 1011.3
20260905103005 86 202 0.0 0.9 0.00 0.00 0.00 61 1011.3
20260905102405 85 202 0.0 2.6 0.00 0.00 0.00 61 1011.3
20260905101908 85 180 2.6 2.6 0.00 0.00 0.00 62 1011.4
20260905101805 85 180 2.6 2.6 0.00 0.00 0.00 62 1011.3
20260905101205 85 292 1.7 1.7 0.00 0.00 0.00 63 1011.5
20260905100908 85 135 0.9 2.6 0.00 0.00 0.00 65 1011.5
20260905100605 84 247 2.6 2.6 0.00 0.00 0.00 65 1011.5
20260905100408 84 67 0.9 0.9 0.00 0.00 0.00 65 1011.5